Time,TemperatureF,DewpointF,PressureIn,WindDirection,WindDirectionDegrees,WindSpeedMPH,WindSpeedGustMPH,Humidity,HourlyPrecipIn,Conditions,Clouds,dailyrainin,SoftwareType,DateUTC
2013-01-14 00:00:00,13.0,-99.9,-100.00,SW,234,5.0,7.0,-999,0.00,,,0.00,,2013-01-14 06:00:00,
2013-01-14 00:03:00,12.0,-99.9,-100.00,WSW,243,3.0,4.0,-999,0.00,,,0.00,,2013-01-14 06:03:00,
2013-01-14 00:12:00,12.0,-99.9,-100.00,WSW,243,3.0,4.0,-999,0.00,,,0.00,,2013-01-14 06:12:00,
2013-01-14 00:23:00,12.0,-99.9,-100.00,WSW,243,3.0,4.0,-999,0.00,,,0.00,,2013-01-14 06:23:00,
2013-01-14 00:33:00,13.0,-99.9,-100.00,SW,234,5.0,7.0,-999,0.00,,,0.00,,2013-01-14 06:33:00,
2013-01-14 00:43:00,13.0,-99.9,-100.00,SW,234,5.0,7.0,-999,0.00,,,0.00,,2013-01-14 06:43:00,
2013-01-14 00:53:00,13.0,-99.9,-100.00,SW,234,5.0,7.0,-999,0.00,,,0.00,,2013-01-14 06:53:00,
2013-01-14 01:33:00,12.0,-99.9,-100.00,WSW,239,3.0,4.0,-999,0.00,,,0.00,,2013-01-14 07:33:00,
2013-01-14 01:43:00,12.0,-99.9,-100.00,WSW,239,3.0,4.0,-999,0.00,,,0.00,,2013-01-14 07:43:00,
2013-01-14 01:53:00,12.0,-99.9,-100.00,WSW,239,3.0,4.0,-999,0.00,,,0.00,,2013-01-14 07:53:00,
2013-01-14 02:02:00,11.0,-99.9,-100.00,WSW,245,1.0,4.0,-999,0.00,,,0.00,,2013-01-14 08:02:00,
2013-01-14 02:12:00,11.0,-99.9,-100.00,WSW,245,1.0,4.0,-999,0.00,,,0.00,,2013-01-14 08:12:00,
2013-01-14 02:22:00,11.0,-99.9,-100.00,WSW,245,1.0,4.0,-999,0.00,,,0.00,,2013-01-14 08:22:00,
2013-01-14 02:33:00,11.0,-99.9,-100.00,WSW,245,2.0,3.0,-999,0.00,,,0.00,,2013-01-14 08:33:00,
2013-01-14 02:43:00,11.0,-99.9,-100.00,WSW,245,2.0,3.0,-999,0.00,,,0.00,,2013-01-14 08:43:00,
2013-01-14 02:53:00,11.0,-99.9,-100.00,WSW,245,2.0,3.0,-999,0.00,,,0.00,,2013-01-14 08:53:00,
2013-01-14 03:03:00,11.0,-99.9,-100.00,WSW,237,3.0,4.0,-999,0.00,,,0.00,,2013-01-14 09:03:00,
2013-01-14 03:12:00,11.0,-99.9,-100.00,WSW,237,3.0,4.0,-999,0.00,,,0.00,,2013-01-14 09:12:00,
2013-01-14 03:23:00,11.0,-99.9,-100.00,WSW,237,3.0,4.0,-999,0.00,,,0.00,,2013-01-14 09:23:00,
2013-01-14 03:34:00,11.0,-99.9,-100.00,WSW,239,3.0,4.0,-999,0.00,,,0.00,,2013-01-14 09:34:00,
2013-01-14 03:43:00,11.0,-99.9,-100.00,WSW,239,3.0,4.0,-999,0.00,,,0.00,,2013-01-14 09:43:00,
2013-01-14 03:53:00,11.0,-99.9,-100.00,WSW,239,3.0,4.0,-999,0.00,,,0.00,,2013-01-14 09:53:00,
2013-01-14 04:03:00,11.0,-99.9,-100.00,WSW,248,4.0,5.0,-999,0.00,,,0.00,,2013-01-14 10:03:00,
2013-01-14 04:12:00,11.0,-99.9,-100.00,WSW,248,4.0,5.0,-999,0.00,,,0.00,,2013-01-14 10:12:00,
2013-01-14 04:23:00,11.0,-99.9,-100.00,WSW,248,4.0,5.0,-999,0.00,,,0.00,,2013-01-14 10:23:00,
2013-01-14 04:33:00,11.0,-99.9,-100.00,WSW,246,3.0,5.0,-999,0.00,,,0.00,,2013-01-14 10:33:00,
2013-01-14 04:43:00,11.0,-99.9,-100.00,WSW,246,3.0,5.0,-999,0.00,,,0.00,,2013-01-14 10:43:00,
2013-01-14 04:53:00,11.0,-99.9,-100.00,WSW,246,3.0,5.0,-999,0.00,,,0.00,,2013-01-14 10:53:00,
2013-01-14 05:02:00,10.0,-99.9,-100.00,WSW,248,4.0,5.0,-999,0.00,,,0.00,,2013-01-14 11:02:00,
2013-01-14 05:12:00,10.0,-99.9,-100.00,WSW,248,4.0,5.0,-999,0.00,,,0.00,,2013-01-14 11:12:00,
2013-01-14 05:23:00,10.0,-99.9,-100.00,WSW,248,4.0,5.0,-999,0.00,,,0.00,,2013-01-14 11:23:00,
2013-01-14 05:33:00,11.0,-99.9,-100.00,WSW,240,4.0,5.0,-999,0.00,,,0.00,,2013-01-14 11:33:00,
2013-01-14 05:43:00,11.0,-99.9,-100.00,WSW,240,4.0,5.0,-999,0.00,,,0.00,,2013-01-14 11:43:00,
2013-01-14 05:53:00,11.0,-99.9,-100.00,WSW,240,4.0,5.0,-999,0.00,,,0.00,,2013-01-14 11:53:00,
2013-01-14 06:03:00,10.0,-99.9,-100.00,West,261,2.0,3.0,-999,0.00,,,0.00,,2013-01-14 12:03:00,
2013-01-14 06:12:00,10.0,-99.9,-100.00,West,261,2.0,3.0,-999,0.00,,,0.00,,2013-01-14 12:12:00,
2013-01-14 06:23:00,10.0,-99.9,-100.00,West,261,2.0,3.0,-999,0.00,,,0.00,,2013-01-14 12:23:00,
2013-01-14 06:33:00,10.0,-99.9,-100.00,WSW,251,3.0,4.0,-999,0.00,,,0.00,,2013-01-14 12:33:00,
2013-01-14 06:43:00,10.0,-99.9,-100.00,WSW,251,3.0,4.0,-999,0.00,,,0.00,,2013-01-14 12:43:00,
2013-01-14 06:53:00,10.0,-99.9,-100.00,WSW,251,3.0,4.0,-999,0.00,,,0.00,,2013-01-14 12:53:00,
2013-01-14 07:03:00,9.0,-99.9,-100.00,WSW,240,2.0,2.0,-999,0.00,,,0.00,,2013-01-14 13:03:00,
2013-01-14 07:13:00,9.0,-99.9,-100.00,WSW,240,2.0,2.0,-999,0.00,,,0.00,,2013-01-14 13:13:00,
2013-01-14 07:23:00,9.0,-99.9,-100.00,WSW,240,2.0,2.0,-999,0.00,,,0.00,,2013-01-14 13:23:00,
2013-01-14 07:34:00,9.0,-99.9,-100.00,West,272,0.0,1.0,-999,0.00,,,0.00,,2013-01-14 13:34:00,
2013-01-14 07:43:00,9.0,-99.9,-100.00,West,272,0.0,1.0,-999,0.00,,,0.00,,2013-01-14 13:43:00,
2013-01-14 07:53:00,9.0,-99.9,-100.00,West,272,0.0,1.0,-999,0.00,,,0.00,,2013-01-14 13:53:00,
2013-01-14 08:03:00,9.0,-99.9,-100.00,NNW,337,0.0,0.0,-999,0.00,,,0.00,,2013-01-14 14:03:00,
2013-01-14 08:13:00,9.0,-99.9,-100.00,NNW,337,0.0,0.0,-999,0.00,,,0.00,,2013-01-14 14:13:00,
2013-01-14 08:23:00,9.0,-99.9,-100.00,NNW,337,0.0,0.0,-999,0.00,,,0.00,,2013-01-14 14:23:00,
2013-01-14 08:33:00,9.0,-99.9,-100.00,WSW,245,2.0,3.0,-999,0.00,,,0.00,,2013-01-14 14:33:00,
2013-01-14 08:43:00,9.0,-99.9,-100.00,WSW,245,2.0,3.0,-999,0.00,,,0.00,,2013-01-14 14:43:00,
2013-01-14 08:53:00,9.0,-99.9,-100.00,WSW,245,2.0,3.0,-999,0.00,,,0.00,,2013-01-14 14:53:00,
2013-01-14 09:04:00,10.0,-99.9,-100.00,NW,305,3.0,4.0,-999,0.00,,,0.00,,2013-01-14 15:04:00,
2013-01-14 09:13:00,10.0,-99.9,-100.00,NW,305,3.0,4.0,-999,0.00,,,0.00,,2013-01-14 15:13:00,
2013-01-14 09:24:00,10.0,-99.9,-100.00,NW,305,3.0,4.0,-999,0.00,,,0.00,,2013-01-14 15:24:00,
2013-01-14 09:34:00,12.0,-99.9,-100.00,NW,319,5.0,8.0,-999,0.00,,,0.00,,2013-01-14 15:34:00,
2013-01-14 09:43:00,12.0,-99.9,-100.00,NW,319,5.0,8.0,-999,0.00,,,0.00,,2013-01-14 15:43:00,
2013-01-14 09:54:00,12.0,-99.9,-100.00,NW,319,5.0,8.0,-999,0.00,,,0.00,,2013-01-14 15:54:00,
2013-01-14 10:04:00,13.0,-99.9,-100.00,NNW,334,7.0,9.0,-999,0.00,,,0.00,,2013-01-14 16:04:00,
2013-01-14 10:13:00,13.0,-99.9,-100.00,NNW,334,7.0,9.0,-999,0.00,,,0.00,,2013-01-14 16:13:00,
2013-01-14 10:23:00,13.0,-99.9,-100.00,NNW,334,7.0,9.0,-999,0.00,,,0.00,,2013-01-14 16:23:00,
2013-01-14 10:33:00,14.0,-99.9,-100.00,NNW,329,5.0,7.0,-999,0.00,,,0.00,,2013-01-14 16:33:00,
2013-01-14 10:43:00,14.0,-99.9,-100.00,NNW,329,5.0,7.0,-999,0.00,,,0.00,,2013-01-14 16:43:00,
2013-01-14 10:54:00,14.0,-99.9,-100.00,NNW,329,5.0,7.0,-999,0.00,,,0.00,,2013-01-14 16:54:00,
2013-01-14 11:04:00,16.0,-99.9,-100.00,NW,305,3.0,4.0,-999,0.00,,,0.00,,2013-01-14 17:04:00,
2013-01-14 11:12:00,16.0,-99.9,-100.00,NW,305,3.0,4.0,-999,0.00,,,0.00,,2013-01-14 17:12:00,
2013-01-14 11:23:00,16.0,-99.9,-100.00,NW,305,3.0,4.0,-999,0.00,,,0.00,,2013-01-14 17:23:00,
2013-01-14 11:34:00,17.0,-99.9,-100.00,WNW,293,4.0,6.0,-999,0.00,,,0.00,,2013-01-14 17:34:00,
2013-01-14 11:44:00,17.0,-99.9,-100.00,WNW,293,4.0,6.0,-999,0.00,,,0.00,,2013-01-14 17:44:00,
2013-01-14 11:54:00,17.0,-99.9,-100.00,WNW,293,4.0,6.0,-999,0.00,,,0.00,,2013-01-14 17:54:00,
2013-01-14 12:03:00,19.0,-99.9,-100.00,West,281,4.0,6.0,-999,0.00,,,0.00,,2013-01-14 18:03:00,
2013-01-14 12:13:00,19.0,-99.9,-100.00,West,281,4.0,6.0,-999,0.00,,,0.00,,2013-01-14 18:13:00,
2013-01-14 12:23:00,19.0,-99.9,-100.00,West,281,4.0,6.0,-999,0.00,,,0.00,,2013-01-14 18:23:00,
2013-01-14 12:30:00,19.0,-99.9,-100.00,West,267,6.0,9.0,-999,0.00,,,0.00,,2013-01-14 18:30:00,
2013-01-14 12:33:00,19.0,-99.9,-100.00,West,279,5.0,8.0,-999,0.00,,,0.00,,2013-01-14 18:33:00,
2013-01-14 12:43:00,19.0,-99.9,-100.00,West,279,5.0,8.0,-999,0.00,,,0.00,,2013-01-14 18:43:00,
2013-01-14 12:53:00,19.0,-99.9,-100.00,West,279,5.0,8.0,-999,0.00,,,0.00,,2013-01-14 18:53:00,
2013-01-14 13:03:00,19.0,-99.9,-100.00,West,267,6.0,9.0,-999,0.00,,,0.00,,2013-01-14 19:03:00,
2013-01-14 13:13:00,19.0,-99.9,-100.00,West,267,6.0,9.0,-999,0.00,,,0.00,,2013-01-14 19:13:00,
2013-01-14 13:22:00,19.0,-99.9,-100.00,West,267,6.0,9.0,-999,0.00,,,0.00,,2013-01-14 19:22:00,
2013-01-14 13:43:00,21.0,-99.9,-100.00,West,271,5.0,8.0,-999,0.00,,,0.00,,2013-01-14 19:43:00,
2013-01-14 13:53:00,21.0,-99.9,-100.00,West,271,5.0,8.0,-999,0.00,,,0.00,,2013-01-14 19:53:00,
2013-01-14 14:00:00,23.0,-99.9,-100.00,WNW,288,3.0,6.0,-999,0.00,,,0.00,,2013-01-14 20:00:00,
2013-01-14 14:04:00,22.0,-99.9,-100.00,WNW,288,3.0,6.0,-999,0.00,,,0.00,,2013-01-14 20:04:00,
2013-01-14 14:13:00,22.0,-99.9,-100.00,WNW,288,3.0,6.0,-999,0.00,,,0.00,,2013-01-14 20:13:00,
2013-01-14 14:23:00,22.0,-99.9,-100.00,WNW,288,3.0,6.0,-999,0.00,,,0.00,,2013-01-14 20:23:00,
2013-01-14 14:34:00,23.0,-99.9,-100.00,WNW,288,3.0,6.0,-999,0.00,,,0.00,,2013-01-14 20:34:00,
2013-01-14 14:43:00,23.0,-99.9,-100.00,WNW,288,3.0,6.0,-999,0.00,,,0.00,,2013-01-14 20:43:00,
2013-01-14 14:53:00,23.0,-99.9,-100.00,WNW,288,3.0,6.0,-999,0.00,,,0.00,,2013-01-14 20:53:00,
2013-01-14 15:23:00,25.0,-99.9,-100.00,WSW,258,2.0,5.0,-999,0.00,,,0.00,,2013-01-14 21:23:00,
2013-01-14 15:33:00,24.0,-99.9,-100.00,West,271,3.0,5.0,-999,0.00,,,0.00,,2013-01-14 21:33:00,
2013-01-14 15:43:00,24.0,-99.9,-100.00,West,271,3.0,5.0,-999,0.00,,,0.00,,2013-01-14 21:43:00,
2013-01-14 15:54:00,24.0,-99.9,-100.00,West,271,3.0,5.0,-999,0.00,,,0.00,,2013-01-14 21:54:00,
2013-01-14 16:03:00,26.0,-99.9,-100.00,WSW,255,1.0,3.0,-999,0.00,,,0.00,,2013-01-14 22:03:00,
2013-01-14 16:13:00,26.0,-99.9,-100.00,WSW,255,1.0,3.0,-999,0.00,,,0.00,,2013-01-14 22:13:00,
2013-01-14 16:23:00,26.0,-99.9,-100.00,WSW,255,1.0,3.0,-999,0.00,,,0.00,,2013-01-14 22:23:00,
2013-01-14 16:33:00,26.0,-99.9,-100.00,SSE,151,3.0,5.0,-999,0.00,,,0.00,,2013-01-14 22:33:00,
2013-01-14 16:43:00,26.0,-99.9,-100.00,SSE,151,3.0,5.0,-999,0.00,,,0.00,,2013-01-14 22:43:00,
2013-01-14 16:53:00,26.0,-99.9,-100.00,SSE,151,3.0,5.0,-999,0.00,,,0.00,,2013-01-14 22:53:00,
2013-01-14 17:03:00,27.0,-99.9,-100.00,South,173,1.0,2.0,-999,0.00,,,0.00,,2013-01-14 23:03:00,
2013-01-14 17:12:00,27.0,-99.9,-100.00,South,173,1.0,2.0,-999,0.00,,,0.00,,2013-01-14 23:12:00,
2013-01-14 17:23:00,27.0,-99.9,-100.00,South,173,1.0,2.0,-999,0.00,,,0.00,,2013-01-14 23:23:00,
2013-01-14 17:33:00,25.0,-99.9,-100.00,SSE,156,3.0,6.0,-999,0.00,,,0.00,,2013-01-14 23:33:00,
2013-01-14 17:43:00,25.0,-99.9,-100.00,SSE,156,3.0,6.0,-999,0.00,,,0.00,,2013-01-14 23:43:00,
2013-01-14 17:53:00,25.0,-99.9,-100.00,SSE,156,3.0,6.0,-999,0.00,,,0.00,,2013-01-14 23:53:00,
2013-01-14 18:03:00,24.0,-99.9,-100.00,SSE,159,4.0,5.0,-999,0.00,,,0.00,,2013-01-15 00:03:00,
2013-01-14 18:12:00,24.0,-99.9,-100.00,SSE,159,4.0,5.0,-999,0.00,,,0.00,,2013-01-15 00:12:00,
2013-01-14 18:23:00,24.0,-99.9,-100.00,SSE,159,4.0,5.0,-999,0.00,,,0.00,,2013-01-15 00:23:00,
2013-01-14 18:30:00,23.0,-99.9,-100.00,SE,140,4.0,5.0,-999,0.00,,,0.00,,2013-01-15 00:30:00,
2013-01-14 18:33:00,24.0,-99.9,-100.00,SSE,151,4.0,5.0,-999,0.00,,,0.00,,2013-01-15 00:33:00,
2013-01-14 18:43:00,24.0,-99.9,-100.00,SSE,151,4.0,5.0,-999,0.00,,,0.00,,2013-01-15 00:43:00,
2013-01-14 18:53:00,24.0,-99.9,-100.00,SSE,151,4.0,5.0,-999,0.00,,,0.00,,2013-01-15 00:53:00,
2013-01-14 19:03:00,23.0,-99.9,-100.00,SE,140,4.0,5.0,-999,0.00,,,0.00,,2013-01-15 01:03:00,
2013-01-14 19:12:00,23.0,-99.9,-100.00,SE,140,4.0,5.0,-999,0.00,,,0.00,,2013-01-15 01:12:00,
2013-01-14 19:23:00,23.0,-99.9,-100.00,SE,140,4.0,5.0,-999,0.00,,,0.00,,2013-01-15 01:23:00,
2013-01-14 19:30:00,22.0,-99.9,-100.00,SSW,211,3.0,4.0,-999,0.00,,,0.00,,2013-01-15 01:30:00,
2013-01-14 20:03:00,22.0,-99.9,-100.00,SSW,211,3.0,4.0,-999,0.00,,,0.00,,2013-01-15 02:03:00,
2013-01-14 20:12:00,22.0,-99.9,-100.00,SSW,211,3.0,4.0,-999,0.00,,,0.00,,2013-01-15 02:12:00,
2013-01-14 20:23:00,22.0,-99.9,-100.00,SSW,211,3.0,4.0,-999,0.00,,,0.00,,2013-01-15 02:23:00,
2013-01-14 20:43:00,22.0,-99.9,-100.00,SSW,197,2.0,3.0,-999,0.00,,,0.00,,2013-01-15 02:43:00,
2013-01-14 20:53:00,22.0,-99.9,-100.00,SSW,197,2.0,3.0,-999,0.00,,,0.00,,2013-01-15 02:53:00,
2013-01-14 21:03:00,21.0,-99.9,-100.00,South,191,1.0,3.0,-999,0.00,,,0.00,,2013-01-15 03:03:00,
2013-01-14 21:12:00,21.0,-99.9,-100.00,South,191,1.0,3.0,-999,0.00,,,0.00,,2013-01-15 03:12:00,
2013-01-14 21:22:00,21.0,-99.9,-100.00,South,191,1.0,3.0,-999,0.00,,,0.00,,2013-01-15 03:22:00,
2013-01-14 21:33:00,20.0,-99.9,-100.00,SW,234,3.0,5.0,-999,0.00,,,0.00,,2013-01-15 03:33:00,
2013-01-14 21:43:00,20.0,-99.9,-100.00,SW,234,3.0,5.0,-999,0.00,,,0.00,,2013-01-15 03:43:00,
2013-01-14 21:53:00,20.0,-99.9,-100.00,SW,234,3.0,5.0,-999,0.00,,,0.00,,2013-01-15 03:53:00,
2013-01-14 22:03:00,18.0,-99.9,-100.00,WNW,288,1.0,2.0,-999,0.00,,,0.00,,2013-01-15 04:03:00,
2013-01-14 22:12:00,18.0,-99.9,-100.00,WNW,288,1.0,2.0,-999,0.00,,,0.00,,2013-01-15 04:12:00,
2013-01-14 22:22:00,18.0,-99.9,-100.00,WNW,288,1.0,2.0,-999,0.00,,,0.00,,2013-01-15 04:22:00,
2013-01-14 22:33:00,19.0,-99.9,-100.00,WSW,253,2.0,3.0,-999,0.00,,,0.00,,2013-01-15 04:33:00,
2013-01-14 22:43:00,19.0,-99.9,-100.00,WSW,253,2.0,3.0,-999,0.00,,,0.00,,2013-01-15 04:43:00,
2013-01-14 22:53:00,19.0,-99.9,-100.00,WSW,253,2.0,3.0,-999,0.00,,,0.00,,2013-01-15 04:53:00,
2013-01-14 23:04:00,20.0,-99.9,-100.00,SW,230,2.0,5.0,-999,0.00,,,0.00,,2013-01-15 05:04:00,
2013-01-14 23:12:00,20.0,-99.9,-100.00,SW,230,2.0,5.0,-999,0.00,,,0.00,,2013-01-15 05:12:00,
2013-01-14 23:23:00,20.0,-99.9,-100.00,SW,230,2.0,5.0,-999,0.00,,,0.00,,2013-01-15 05:23:00,
2013-01-14 23:33:00,18.0,-99.9,-100.00,WSW,247,2.0,4.0,-999,0.00,,,0.00,,2013-01-15 05:33:00,
2013-01-14 23:43:00,18.0,-99.9,-100.00,WSW,247,2.0,4.0,-999,0.00,,,0.00,,2013-01-15 05:43:00,
2013-01-14 23:53:00,18.0,-99.9,-100.00,WSW,247,2.0,4.0,-999,0.00,,,0.00,,2013-01-15 05:53:00,